Date String (YYYY-MM-DD hh:mm:ss) UTC,Instrument flags,absolute air pressure of the measurement (hPa),sample flow rate (lpm),inlet stack bypass flow (lpm),air temperature of the measurement (°C),ambient temperature measured by the external sensor (°C),aerosol sample conditioner tube jacket temperature (°C),OPC LED temperature (°C),internal box temperature (°C),relative humidity of the measurement (%),span deviation,mass concentration of particles derived from Lorenz-Mie calculation of OPC scattering (μg/m³),mass concentration of particles derived from Lorenz-Mie calculation of OPC scattering (μg/m³),mass concentration of particles derived from Lorenz-Mie calculation of OPC scattering (μg/m³)
DateTimeUTC,F1_M11,P_M11,Q1_M11,Q2_M11,T1_M11,T2_M11,T3_M11,T4_M11,T5_M11,U1_M11,ZSPAN_M11,X2_M11,X0_M11,X1_M11
2023-06-30 16:00:00,SystemResetWarning,0832.9,5.00,000.00,029.5,027.3,000.0,038.2,031.0,29.1,0000.0,0002.96,0008.37,0002.10
2023-06-30 16:01:00,SystemResetWarning,0833.0,4.99,000.00,029.5,027.5,000.0,038.2,031.0,29.5,0000.0,0002.94,0008.41,0002.11
2023-06-30 16:02:00,SystemResetWarning,0833.0,4.99,000.00,029.5,027.7,000.0,038.2,031.0,29.1,0000.0,0002.95,0008.24,0002.11
2023-06-30 16:03:00,SystemResetWarning,0832.9,5.00,000.00,029.5,027.8,000.0,038.2,031.1,29.2,0000.0,0002.97,0007.67,0002.12
2023-06-30 16:04:00,SystemResetWarning,0833.0,5.01,000.00,029.5,028.0,000.0,038.2,031.1,29.3,0000.0,0002.98,0007.60,0002.12
2023-06-30 16:05:00,SystemResetWarning,0833.0,5.01,000.00,029.6,028.1,000.0,038.2,031.1,29.0,0000.0,0003.03,0007.57,0002.14
2023-06-30 16:06:00,SystemResetWarning,0833.0,5.00,000.00,029.6,028.1,000.0,038.2,031.1,28.6,0000.0,0003.03,0007.78,0002.15
2023-06-30 16:07:00,SystemResetWarning,0833.1,5.00,000.00,029.6,028.2,000.0,038.2,031.2,28.6,0000.0,0003.03,0007.80,0002.15
2023-06-30 16:08:00,SystemResetWarning,0832.9,5.00,000.00,029.6,028.3,000.0,038.2,031.2,28.6,0000.0,0003.01,0007.65,0002.14
2023-06-30 16:09:00,SystemResetWarning,0832.9,5.01,000.00,029.6,028.3,000.0,038.2,031.2,28.8,0000.0,0003.01,0007.54,0002.13
2023-06-30 16:10:00,SystemResetWarning,0833.0,5.00,000.00,029.6,028.4,000.0,038.2,031.2,28.9,0000.0,0003.01,0007.51,0002.13
2023-06-30 16:11:00,SystemResetWarning,0832.9,5.00,000.00,029.7,028.4,000.0,038.2,031.3,28.8,0000.0,0003.01,0007.74,0002.14
2023-06-30 16:12:00,SystemResetWarning,0832.9,5.00,000.00,029.7,028.4,000.0,038.2,031.3,29.0,0000.0,0002.97,0008.21,0002.14
2023-06-30 16:13:00,SystemResetWarning,0833.3,4.99,000.00,029.7,028.5,000.0,038.2,031.3,29.4,0000.0,0002.95,0008.01,0002.15
2023-06-30 16:14:00,SystemResetWarning,0833.0,4.99,000.00,029.7,028.5,000.0,038.3,031.3,29.7,0000.0,0002.91,0007.45,0002.14
2023-06-30 16:15:00,SystemResetWarning,0832.9,5.00,000.00,029.7,028.5,000.0,038.3,031.3,29.6,0000.0,0002.93,0007.37,0002.15
2023-06-30 16:16:00,SystemResetWarning,0832.9,5.00,000.00,029.8,028.5,000.0,038.3,031.3,29.6,0000.0,0003.03,0007.45,0002.17
2023-06-30 16:17:00,SystemResetWarning,0833.2,5.00,000.00,029.8,028.6,000.0,038.3,031.3,30.0,0000.0,0003.09,0007.41,0002.18
2023-06-30 16:18:00,SystemResetWarning,0833.1,5.00,000.00,029.8,028.6,000.0,038.3,031.4,30.2,0000.0,0003.10,0007.61,0002.20
2023-06-30 16:19:00,SystemResetWarning,0833.1,5.01,000.00,029.8,028.6,000.0,038.3,031.4,29.6,0000.0,0003.13,0007.71,0002.21
2023-06-30 16:20:00,SystemResetWarning,0833.2,5.00,000.00,029.8,028.6,000.0,038.3,031.4,29.2,0000.0,0003.18,0007.90,0002.22
2023-06-30 16:21:00,SystemResetWarning,0833.2,5.01,000.00,029.8,028.6,000.0,038.4,031.4,29.1,0000.0,0003.22,0007.95,0002.24
2023-06-30 16:22:00,SystemResetWarning,0833.2,5.00,000.00,029.9,028.6,000.0,038.4,031.4,28.6,0000.0,0003.25,0007.90,0002.26
2023-06-30 16:23:00,SystemResetWarning,0833.2,5.00,000.00,029.9,028.7,000.0,038.4,031.4,28.7,0000.0,0003.30,0008.28,0002.27
2023-06-30 16:24:00,SystemResetWarning,0833.3,5.01,000.00,029.9,028.7,000.0,038.4,031.5,29.3,0000.0,0003.34,0008.74,0002.28
2023-06-30 16:25:00,SystemResetWarning,0833.4,5.01,000.00,029.9,028.7,000.0,038.4,031.5,29.6,0000.0,0003.35,0009.07,0002.29
2023-06-30 16:26:00,SystemResetWarning,0833.4,4.99,000.00,029.9,028.7,000.0,038.4,031.5,29.7,0000.0,0003.37,0009.42,0002.31
2023-06-30 16:27:00,SystemResetWarning,0833.4,4.99,000.00,029.9,028.7,000.0,038.5,031.5,29.1,0000.0,0003.35,0009.56,0002.32
2023-06-30 16:28:00,SystemResetWarning,0833.4,5.01,000.00,030.0,028.7,000.0,038.5,031.5,29.1,0000.0,0003.33,0009.70,0002.33
2023-06-30 16:29:00,SystemResetWarning,0833.4,5.00,000.00,030.0,028.8,000.0,038.5,031.5,29.2,0000.0,0003.37,0009.52,0002.34
2023-06-30 16:30:00,SystemResetWarning,0833.4,5.01,000.00,030.0,028.8,000.0,038.5,031.5,29.5,0000.0,0003.38,0009.75,0002.35
2023-06-30 16:31:00,SystemResetWarning,0833.4,5.00,000.00,030.0,028.8,000.0,038.5,031.6,29.7,0000.0,0003.33,0009.82,0002.35
2023-06-30 16:32:00,SystemResetWarning,0833.4,5.00,000.00,030.0,028.8,000.0,038.5,031.6,30.1,0000.0,0003.32,0009.82,0002.34
2023-06-30 16:33:00,SystemResetWarning,0833.4,5.00,000.00,030.0,028.8,000.0,038.5,031.6,29.8,0000.0,0003.29,0009.62,0002.35
2023-06-30 16:34:00,SystemResetWarning,0833.4,5.00,000.00,030.0,028.8,000.0,038.6,031.6,29.4,0000.0,0003.30,0008.93,0002.37
2023-06-30 16:35:00,SystemResetWarning,0833.4,4.99,000.00,030.0,028.8,000.0,038.6,031.6,29.4,0000.0,0003.30,0009.04,0002.39
2023-06-30 16:36:00,SystemResetWarning,0833.4,5.00,000.00,030.1,028.8,000.0,038.6,031.6,29.6,0000.0,0003.33,0009.11,0002.41
2023-06-30 16:37:00,SystemResetWarning,0833.4,4.99,000.00,030.1,028.8,000.0,038.6,031.6,29.4,0000.0,0003.37,0009.81,0002.44
2023-06-30 16:38:00,SystemResetWarning,0833.4,5.01,000.00,030.1,028.8,000.0,038.6,031.6,29.1,0000.0,0003.40,0009.74,0002.46
2023-06-30 16:39:00,SystemResetWarning,0833.4,5.01,000.00,030.1,028.9,000.0,038.6,031.7,28.3,0000.0,0003.46,0010.27,0002.49
2023-06-30 16:40:00,SystemResetWarning,0833.4,5.00,000.00,030.1,028.9,000.0,038.6,031.7,28.7,0000.0,0003.45,0010.18,0002.51
2023-06-30 16:41:00,SystemResetWarning,0833.5,5.00,000.00,030.1,028.9,000.0,038.7,031.7,28.1,0000.0,0003.44,0010.12,0002.52
2023-06-30 16:42:00,SystemResetWarning,0833.4,5.00,000.00,030.1,028.9,000.0,038.7,031.7,28.6,0000.0,0003.48,0010.02,0002.55
2023-06-30 16:43:00,SystemResetWarning,0833.7,4.99,000.00,030.1,028.9,000.0,038.7,031.7,28.8,0000.0,0003.53,0010.11,0002.57
2023-06-30 16:44:00,SystemResetWarning,0833.4,4.99,000.00,030.2,028.9,000.0,038.7,031.7,28.9,0000.0,0003.59,0010.85,0002.59
2023-06-30 16:45:00,SystemResetWarning,0833.4,4.99,000.00,030.2,028.9,000.0,038.7,031.7,29.2,0000.0,0003.58,0011.23,0002.59
2023-06-30 16:46:00,SystemResetWarning,0833.4,5.00,000.00,030.2,028.9,000.0,038.7,031.7,29.4,0000.0,0003.62,0011.41,0002.60
2023-06-30 16:47:00,SystemResetWarning,0833.4,5.00,000.00,030.2,029.0,000.0,038.7,031.7,29.7,0000.0,0003.61,0011.73,0002.60
2023-06-30 16:48:00,SystemResetWarning,0833.4,5.00,000.00,030.2,029.0,000.0,038.7,031.7,30.2,0000.0,0003.58,0011.02,0002.58
2023-06-30 16:49:00,SystemResetWarning,0833.4,5.00,000.00,030.2,029.0,000.0,038.7,031.8,30.8,0000.0,0003.57,0011.45,0002.57
2023-06-30 16:50:00,SystemResetWarning,0833.4,5.00,000.00,030.2,028.8,000.0,038.7,031.7,30.7,0000.0,0003.54,0010.74,0002.56
2023-06-30 16:51:00,SystemResetWarning,0833.4,5.00,000.00,030.2,027.0,000.0,038.6,031.6,30.7,0000.0,0003.53,0010.64,0002.55
2023-06-30 16:52:00,SystemResetWarning,0833.4,5.01,000.00,030.1,025.8,000.0,038.5,031.4,31.0,0000.0,0003.51,0011.05,0002.56
2023-06-30 16:53:00,SystemResetWarning,0833.4,5.00,000.00,030.0,025.7,000.0,038.5,031.1,31.2,0000.0,0003.51,0010.98,0002.59
2023-06-30 16:54:00,SystemResetWarning,0833.4,5.01,000.00,029.8,026.0,000.0,038.5,031.0,31.8,0000.0,0003.47,0011.15,0002.60
2023-06-30 16:55:00,SystemResetWarning,0833.4,4.99,000.00,029.8,026.4,000.0,038.5,031.0,31.8,0000.0,0003.47,0010.64,0002.63
2023-06-30 16:56:00,SystemResetWarning,0833.4,4.99,000.00,029.8,026.8,000.0,038.5,031.1,32.1,0000.0,0003.50,0010.23,0002.68
2023-06-30 16:57:00,SystemResetWarning,0833.4,5.00,000.00,029.8,027.1,000.0,038.5,031.1,32.0,0000.0,0003.48,0009.76,0002.70
2023-06-30 16:58:00,SystemResetWarning,0833.3,5.01,000.00,029.7,027.4,000.0,038.5,031.2,31.8,0000.0,0003.51,0009.37,0002.73
2023-06-30 16:59:00,SystemResetWarning,0833.3,4.98,000.00,029.7,027.6,000.0,038.5,031.2,32.3,0000.0,0003.53,0009.44,0002.78
